Location: Newark
(45.0667°N, 7.8333°E)
Time: 11:24:58
(UTC+00:00)

ISS - Visible Passes

Search period start: 17 July 2019 00:00
Search period end: 27 July 2019 00:00
Orbit: 409 x 418 km, 51.6° (Epoch: 17 July)

Date Brightness Start Highest point End Pass type
(mag) Time Alt. Az. Time Alt. Az. Time Alt. Az.
17 Jul -1.4 00:19:44 10° NW 00:22:35 25° N 00:25:26 10° ENE visible
17 Jul -3.0 01:56:29 10° NW 01:59:45 53° NNE 02:03:00 10° ESE visible
17 Jul -3.1 20:16:15 10° SSW 20:19:17 33° SE 20:22:20 10° ENE visible
17 Jul -2.7 21:52:41 10° W 21:55:54 46° NNW 21:59:09 10° NE visible
17 Jul -1.4 23:30:17 10° WNW 23:33:07 25° N 23:35:58 10° ENE visible
18 Jul -2.3 01:07:14 10° NW 01:10:23 39° NNE 01:13:32 10° E visible
18 Jul -3.5 02:43:56 10° WNW 02:47:07 43° SW 02:50:16 10° SE visible
18 Jul -3.4 21:03:14 10° WSW 21:06:33 66° NNW 21:09:53 10° ENE visible
18 Jul -1.5 22:40:46 10° WNW 22:43:40 27° N 22:46:33 10° NE visible
19 Jul -1.9 00:17:57 10° NW 00:20:59 31° NNE 00:23:59 10° ENE visible
19 Jul -4.0 01:54:35 10° WNW 01:57:53 73° SSW 02:01:11 10° SE visible
19 Jul -3.9 20:13:55 10° SW 20:17:15 80° SSE 20:20:36 10° ENE visible
19 Jul -1.8 21:51:11 10° WNW 21:54:12 30° NNW 21:57:13 10° NE visible
19 Jul -1.6 23:28:36 10° NW 23:31:31 27° N 23:34:26 10° ENE visible
20 Jul -3.6 01:05:16 10° WNW 01:08:36 71° NNE 01:09:06 57° E visible
20 Jul -2.1 02:45:54 16° SSW 02:45:54 16° SSW 02:47:19 10° S visible
20 Jul -2.2 21:01:37 10° W 21:04:46 37° NNW 21:07:54 10° NE visible
20 Jul -1.5 22:39:11 10° NW 22:42:02 25° N 22:44:53 10° ENE visible
21 Jul -2.1 00:15:59 10° NW 00:18:02 31° NNW 00:18:02 31° NNW visible
21 Jul -2.8 20:12:04 10° W 20:15:21 50° NNW 20:18:38 10° NE visible
21 Jul -1.5 21:49:40 10° WNW 21:52:32 25° N 21:55:23 10° NE visible
21 Jul -2.1 23:26:41 10° NW 23:29:25 35° N 23:29:25 35° N visible
22 Jul -1.6 21:00:06 10° WNW 21:03:02 27° N 21:05:57 10° NE visible
22 Jul -1.9 22:37:21 10° NW 22:40:20 30° NNE 22:41:11 26° NE visible
23 Jul -0.8 00:13:58 10° WNW 00:13:59 10° WNW 00:13:59 10° WNW visible
23 Jul -1.9 20:10:29 10° W 20:13:32 32° NNW 20:16:35 10° NE visible
23 Jul -1.7 21:47:56 10° NW 21:50:50 26° N 21:53:07 14° ENE visible
23 Jul -1.5 23:24:38 10° WNW 23:25:55 21° NW 23:25:55 21° NW visible
24 Jul -1.6 20:58:27 10° WNW 21:01:18 25° N 21:04:09 10° ENE visible
24 Jul -2.4 22:35:18 10° NW 22:37:57 39° N 22:37:57 39° N visible
25 Jul -1.6 20:08:53 10° WNW 20:11:45 26° N 20:14:37 10° NE visible
25 Jul -2.3 21:45:57 10° NW 21:49:03 34° NNE 21:50:01 28° NE visible
25 Jul -0.8 23:22:36 10° WNW 23:22:50 12° WNW 23:22:50 12° WNW visible
26 Jul -1.9 20:56:33 10° NW 20:59:31 29° N 21:02:08 12° ENE visible
26 Jul -2.0 22:33:10 10° WNW 22:34:56 29° WNW 22:34:56 29° WNW visible
